Location: Veyrier
(46.1830°N, 6.2000°E)
Time: 09:57:03
(UTC+01:00)

Daily predictions for brighter satellites

Satellite Brightness Start Highest point End
(mag) Time Altitude Azimuth Time Altitude Azimuth Time Altitude Azimuth
Cosmos 1536 Rocket 3.6 18:39:48 10° N 18:44:17 80° E 18:48:46 10° SSE
Cosmos 2219 4.1 18:40:09 10° SSE 18:44:58 28° ESE 18:49:46 10° NE
Okean 1-7 Rocket 4.3 18:43:18 10° N 18:47:23 32° ENE 18:51:24 10° SE
SJ-6B 3.3 18:44:33 10° SE 18:48:14 38° ENE 18:51:51 10° N
Geosat 4.3 18:45:19 10° NNE 18:50:21 73° WNW 18:55:21 10° SW
Cosmos 1023 Rocket 4.5 18:51:18 10° S 18:56:18 61° ESE 19:01:23 10° NNE
SL-16 R/B 4.1 18:53:39 10° N 18:56:21 13° NE 18:59:01 10° ENE
H-2A R/B 4.0 18:53:58 10° ESE 18:56:49 21° ENE 18:59:42 10° NNE
HJ-1C 4.2 18:57:44 10° SE 19:00:44 30° ENE 19:03:44 10° N
Helios 1B rocket 4.1 19:06:40 10° ENE 19:08:40 13° E 19:10:41 10° ESE
Helios 1A 4.3 19:07:07 10° ESE 19:10:13 21° ENE 19:13:19 10° NNE
Cosmos 1300 Rocket 3.5 19:06:54 10° S 19:11:18 76° E 19:15:45 10° NNE
Cosmos 1833 4.3 19:08:19 10° SSW 19:14:00 81° WNW 19:19:41 10° NNE
USA 229 DEB 3.8 19:09:04 10° NW 19:16:12 72° NE 19:23:26 10° SE
USA 229 3.8 19:09:09 10° NW 19:16:17 72° NE 19:23:31 10° SE
Meteor 1-11 Rocket 3.8 19:11:33 10° S 19:17:22 76° E 19:23:19 10° NNE
Cosmos 1536 2.9 19:13:55 10° S 19:17:47 53° E 19:21:41 10° NNE
Cosmos 1741 Rocket 4.0 19:12:56 10° S 19:18:02 58° ESE 19:23:10 10° NNE
Cosmos 2333 Rocket 2.7 19:13:57 10° NNW 19:19:23 41° NE 19:24:40 11° SE
COSMO-SKYMED 1 3.7 19:15:52 10° N 19:20:04 48° WNW 19:24:13 10° SW
Cosmos 2181 Rocket 4.2 19:14:14 10° N 19:20:31 81° W 19:26:52 10° S
Cosmos 1980 4.4 19:15:50 10° NNW 19:20:59 34° NE 19:25:11 14° ESE
NOAA 12 4.4 19:16:07 10° S 19:21:25 72° WSW 19:26:47 10° NNW
FREGAT/IRIS 2.9 19:21:19 10° S 19:24:24 72° W 19:27:30 10° NNW
Abrixas rocket 3.0 19:21:24 10° SW 19:24:30 36° SSE 19:26:08 22° E
NOSS 8 (H) 4.4 19:22:05 10° SSW 19:25:25 66° SE 19:29:01 10° NE
FENGYUN 3A 3.6 19:21:49 10° SSE 19:27:12 72° ENE 19:32:38 10° N
GEOS 3 Rocket 4.5 19:23:47 12° ENE 19:27:55 29° ESE 19:32:28 10° S
Cosmos 1140 Rocket 3.7 19:22:59 10° SSW 19:28:07 74° WNW 19:33:19 10° NNE
NOSS 3-1 (A) 4.5 19:21:36 10° NNW 19:28:28 42° NE 19:34:09 18° E
Cosmos 614 Rocket 3.9 19:24:27 10° SSW 19:29:31 89° ESE 19:34:38 10° NNE
SAR-Lupe-4 4.3 19:27:35 16° SE 19:29:54 32° ENE 19:33:08 10° N
USA 215 4.1 19:24:42 10° NE 19:30:50 45° NNW 19:36:58 10° W
Resurs 01 Rocket 1.6 19:26:46 10° SSE 19:31:05 60° ENE 19:35:26 10° N
Cosmos 1709 Rocket 4.4 19:25:16 10° SSW 19:31:25 65° W 19:37:32 10° N
Cosmos 1602 4.5 19:27:39 10° SSW 19:31:29 57° W 19:35:22 10° N
Cosmos 2074 Rocket 4.0 19:26:37 10° S 19:32:44 60° E 19:38:54 10° NNE
ATLAS 2AS CENTAUR R/B 4.3 19:26:30 10° NW 19:33:06 26° NNE 19:38:18 14° ENE
Cosmos 1570 Rocket 4.3 19:28:51 10° NNW 19:34:04 70° WSW 19:39:16 10° S
Cosmos 2184 Rocket 4.0 19:32:38 10° S 19:38:51 64° E 19:45:02 10° NNE
SL-08 ROCKET BODY 4.4 19:33:50 10° S 19:39:59 75° E 19:46:11 10° NNE
Cosmos 1437 3.8 19:38:06 10° N 19:40:40 27° ENE 19:40:40 27° ENE
Resurs 1-3 3.5 19:37:48 10° SSE 19:42:09 66° ENE 19:46:31 10° N
Cosmos 468 Rocket 4.1 19:38:13 10° NNW 19:43:23 58° ENE 19:47:53 14° SE
NOSS 3-1 (C) 4.1 19:39:30 10° NW 19:46:47 58° NE 19:52:25 21° ESE
CZ-4B DEB 4.4 19:48:37 20° NNE 19:48:37 20° NNE 19:50:01 10° N
Meteor 1-5 Rocket 4.2 19:41:31 10° S 19:47:27 71° E 19:53:17 10° NNE
FengYun 1-2 T 4.3 19:44:23 10° S 19:49:52 78° WSW 19:55:25 10° NNW
Spot 2 Rocket 3.4 19:45:48 10° SSE 19:50:51 89° E 19:55:58 10° NNW
Okean 1 Rocket 3.9 19:47:17 10° SSW 19:51:41 55° WNW 19:56:06 10° N
Cosmos 1892 Rocket 3.5 19:48:48 10° N 19:53:07 60° ENE 19:56:55 13° SSE
Nadezhda 3 Rocket 4.1 19:48:00 10° N 19:54:00 51° ENE 20:00:00 10° SSE
Cosmos 1025 Rocket 3.4 19:52:13 10° NNW 19:56:34 67° W 20:00:55 10° S
NOSS 0 Rocket 3.8 19:51:50 10° NNW 19:58:01 77° ENE 20:02:53 17° SE
Cosmos 1814 Rocket 3.9 19:59:02 10° NNW 20:04:11 65° ENE 20:06:42 30° SE
ERS-1 Rocket 4.0 20:05:11 27° NE 20:05:11 27° NE 20:09:03 10° N
Cosmos 2237 Rocket 2.2 20:00:26 10° NNW 20:06:08 65° ENE 20:08:56 30° SE
Cosmos 2341 Rocket 4.3 20:00:50 10° SSE 20:06:46 43° E 20:12:45 10° NNE
Envisat 3.3 20:06:15 38° ESE 20:07:23 44° ENE 20:12:12 10° N
Cosmos 2285 Rocket 4.3 20:01:09 10° NNW 20:07:34 70° WSW 20:13:55 10° S
Spot 1 3.8 20:05:43 23° SSE 20:08:12 83° ENE 20:12:26 10° NNW
Cosmos 2154 Rocket 4.0 20:02:06 10° S 20:08:17 58° E 20:14:29 10° NNE
Cosmos 332 Rocket 4.1 20:03:58 10° N 20:08:39 43° ENE 20:09:10 41° E
COSMOS 2428 3.8 20:04:06 10° NW 20:09:27 44° WSW 20:14:47 10° S
Cosmos 2297 Rocket 3.4 20:05:40 10° SSE 20:08:19 24° SE 20:08:19 24° SE
Cosmos 1066 Rocket 4.4 20:05:10 10° N 20:10:38 48° ENE 20:12:06 39° ESE
USA 32 4.2 20:05:50 10° N 20:10:53 46° E 20:11:45 42° ESE
Meteor 1-12 Rocket 4.4 20:06:45 10° SSE 20:12:29 50° E 20:18:10 10° NNE
Cosmos 1515 3.6 20:09:03 10° N 20:12:47 64° ENE 20:12:47 64° ENE
Gbstr 26 Del rocket 3.0 20:13:38 10° W 20:17:20 56° NNW 20:17:55 49° NNE
ALOS 3.8 20:13:45 10° SSW 20:18:04 37° W 20:22:24 10° NNW
Cosmos 371 Rocket 3.8 20:13:56 10° N 20:18:18 40° NE 20:18:18 40° NE
Cosmos 2219 Rocket 2.5 20:13:07 10° NNW 20:18:41 64° WSW 20:23:30 14° S
Cosmos 1544 Rocket 3.3 20:14:56 10° S 20:19:15 79° E 20:23:36 10° NNE
Cosmos 405 Rocket 3.4 20:20:33 10° NNW 20:24:34 55° W 20:27:15 19° S
USA 186 3.6 20:26:15 23° NNW 20:26:15 23° NNW 20:27:30 10° NNW
Cosmos 2219 4.1 20:23:15 10° SW 20:28:50 50° WNW 20:34:25 10° NNE
SJ-11-01 4.2 20:29:24 66° E 20:29:31 67° ENE 20:34:16 10° N
Cosmos 2227 Rocket 2.1 20:25:20 10° S 20:30:53 61° ESE 20:32:08 49° ENE
H-2A R/B 4.5 20:27:36 10° SSW 20:30:56 31° W 20:34:20 10° NNW
CZ-2D R/B 4.4 20:28:11 14° SSW 20:31:10 42° W 20:34:50 10° NNW
Cosmos 1602 Rocket 4.5 20:27:25 10° N 20:30:18 36° NNE 20:30:18 36° NNE
Cosmos 1486 Rocket 4.5 20:30:31 10° S 20:43:13 - NNE 20:34:19 45° SSE
Cosmos 1626 Rocket 4.3 20:32:25 10° N 20:35:30 41° NNE 20:35:30 41° NNE
Cosmos 962 Rocket 4.3 20:32:48 10° S 20:38:57 74° E 20:45:05 10° NNE
Meteor 2-8 Rocket 4.3 20:34:43 10° N 20:40:48 76° E 20:42:18 53° SSE
SL-16 R/B 2.3 20:36:11 10° NNW 20:41:38 56° NE 20:41:38 56° NE
Helios 1B rocket 2.9 20:40:17 10° N 20:44:23 61° WNW 20:48:28 10° SSW
Helios 1A 4.2 20:43:31 24° SSW 20:45:32 40° W 20:49:29 10° NNW
Cosmos 841 Rocket 3.3 20:40:51 10° NNW 20:45:59 85° NE 20:45:59 85° NE
H-2A R/B 4.2 20:48:46 15° NNE 20:48:46 15° NNE 20:50:08 10° NNE
Cosmos 1441 Rocket 4.5 20:49:58 10° NNW 20:52:48 41° NW 20:52:48 41° NW
Cosmos 1939 Rocket 4.5 20:57:21 29° NNW 20:57:21 29° NNW 20:59:25 10° NNW
Cosmos 1763 Rocket 3.7 20:51:44 10° NNW 20:56:49 65° WSW 20:57:14 62° SW
Cosmos 1455 Rocket 3.8 20:52:34 10° SSW 20:56:50 52° WNW 21:01:07 10° N
Cosmos 2333 Rocket 3.6 20:58:23 10° NW 21:03:35 36° WSW 21:06:44 21° SSW
GEOS 3 Rocket 4.0 21:04:56 46° N 21:06:11 60° NW 21:11:22 10° WSW
USA 215 4.3 21:11:12 30° NNE 21:12:59 34° N 21:18:43 10° WNW
NOSS 3-1 (A) 4.2 21:12:26 10° NW 21:19:56 67° WSW 21:21:39 54° S
SL-8 Rocket 4.5 21:24:08 51° N 21:24:08 51° N 21:28:45 10° N
ATLAS 2AS CENTAUR R/B 3.2 21:18:01 10° NW 21:25:45 55° NE 21:25:45 55° NE
Cosmos 2237 Rocket 4.2 21:45:31 10° NW 21:49:39 21° W 21:50:49 20° WSW
Cosmos 2297 Rocket 4.4 21:49:10 10° SW 21:50:21 16° WSW 21:50:21 16° WSW
Cosmos 2227 Rocket 4.2 22:10:40 10° WSW 22:22:30 - NNE 22:14:14 24° WNW
SL-16 R/B 4.4 22:21:01 10° NW 22:23:33 20° WNW 22:23:33 20° WNW
